Total_Precipitation_Accumulation
2.09 2.00 2.43 3.30 3.78 3.24 2.75 2.20 1.90 1.83 1.56 1.26 0.99 0.96 1.18 1.55 1.97 2.29 2.50 2.34 1.63 1.28 1.34 2.00 2.53 2.28 1.86 1.58 1.49 1.50 1.43 1.47 1.36 1.28 1.15 1.05 0.95 0.85 0.73 0.63 0.65 0.65 0.60 0.54 0.56 0.67 0.70 0.71 0.86
1.56 2.34 3.02 3.86 3.42 2.74 2.55 2.20 2.04 1.72 1.26 1.03 0.75 0.68 0.79 0.82 0.85 1.32 2.34 2.34 1.49 1.20 1.26 1.50 2.09 1.97 1.62 1.43 1.43 1.48 1.42 1.50 1.42 1.25 1.08 0.95 0.94 0.93 0.83 0.77 0.86 0.69 0.59 0.53 0.58 0.70 0.76 0.75 0.85
1.72 2.76 3.64 3.83 2.70 2.42 2.49 2.29 1.92 1.42 1.00 0.92 0.75 0.67 0.80 0.99 1.04 1.45 2.10 1.75 1.32 1.21 1.24 1.63 2.06 1.87 1.63 1.45 1.49 1.55 1.48 1.48 1.34 1.09 0.89 0.88 0.96 0.98 0.97 0.97 0.94 0.72 0.61 0.53 0.56 0.67 0.73 0.75 0.83
1.99 3.05 3.30 3.02 2.46 2.01 1.99 2.02 1.58 1.26 0.97 0.66 0.67 0.72 0.75 1.05 1.05 1.33 1.43 1.25 1.11 1.19 1.21 1.51 1.91 1.79 1.61 1.46 1.50 1.54 1.55 1.54 1.44 1.15 0.94 0.94 0.99 0.97 0.95 1.01 0.87 0.77 0.69 0.59 0.60 0.66 0.73 0.73 0.77
2.36 3.14 3.05 2.63 2.39 1.99 1.67 1.42 1.22 1.11 0.98 0.74 0.64 0.84 1.13 1.45 1.28 1.22 1.18 1.14 0.99 1.07 1.06 1.22 1.64 1.67 1.53 1.45 1.60 1.66 1.65 1.66 1.61 1.32 1.11 1.03 1.00 0.97 0.98 1.03 0.88 0.82 0.76 0.72 0.74 0.76 0.76 0.75 0.80
2.62 2.74 2.96 2.60 2.39 2.09 1.97 1.44 1.21 1.09 0.86 0.74 0.73 0.96 1.47 1.76 1.51 1.37 1.22 1.26 1.22 1.19 1.07 1.04 1.40 1.49 1.43 1.44 1.53 1.58 1.58 1.55 1.52 1.30 1.12 1.05 1.00 0.97 1.06 1.11 0.99 0.91 0.81 0.76 0.77 0.81 0.86 0.86 0.86
2.53 2.65 2.75 2.25 2.31 2.46 2.13 1.46 1.32 1.11 0.99 0.80 0.65 1.04 1.52 1.85 1.60 1.39 1.32 1.34 1.41 1.33 1.24 1.13 1.18 1.28 1.49 1.55 1.51 1.44 1.35 1.33 1.29 1.15 1.09 1.02 0.98 0.93 0.99 1.04 0.97 0.95 0.94 0.90 0.84 0.88 0.95 0.89 0.91
1.92 2.17 2.26 2.18 2.35 2.56 1.81 1.27 1.04 0.96 0.89 0.65 0.57 0.95 1.35 1.41 1.35 1.35 1.46 1.60 1.73 1.54 1.37 1.15 1.07 1.14 1.20 1.31 1.40 1.45 1.41 1.33 1.26 1.12 1.01 0.97 0.92 0.82 0.87 0.83 0.82 0.89 1.00 1.09 1.04 1.03 1.01 1.00 0.96
1.79 2.30 2.58 2.58 2.33 2.02 1.27 1.05 0.92 0.74 0.79 0.72 0.55 0.61 0.78 0.88 1.03 1.22 1.26 1.39 1.50 1.28 1.18 1.19 1.16 1.18 1.21 1.17 1.23 1.42 1.46 1.42 1.23 1.11 1.04 0.94 0.74 0.65 0.71 0.71 0.86 0.99 1.16 1.25 1.28 1.24 1.19 1.08 0.93
1.86 2.49 2.50 1.94 1.68 1.37 0.98 0.93 0.84 0.86 0.91 0.85 0.65 0.64 0.76 0.81 1.00 1.15 1.05 1.02 0.94 0.91 0.91 0.97 1.03 1.14 1.15 1.05 1.29 1.50 1.35 1.20 0.96 0.94 0.85 0.83 0.77 0.74 0.62 0.68 0.93 1.09 1.16 1.19 1.32 1.40 1.23 0.96 0.70
1.52 1.98 1.76 1.54 1.30 1.05 0.89 0.90 0.79 0.84 0.98 0.85 0.68 0.70 0.89 0.96 0.96 0.92 0.85 0.82 0.75 0.78 0.78 0.76 0.84 0.95 1.02 1.15 1.39 1.64 1.69 1.47 1.24 1.02 0.93 0.90 0.79 0.71 0.67 0.67 0.76 0.86 0.92 0.87 0.94 0.97 0.82 0.71 0.64
1.30 1.26 1.25 1.42 1.18 1.09 0.89 0.87 0.88 0.83 0.86 0.75 0.63 0.66 0.82 0.99 1.00 0.85 0.69 0.61 0.58 0.63 0.72 0.60 0.54 0.72 0.87 0.98 1.08 1.33 1.40 1.33 1.18 0.98 0.89 0.94 0.89 0.78 0.76 0.74 0.80 0.81 0.81 0.90 0.92 0.95 0.89 0.73 0.65
1.57 1.35 1.12 1.09 1.15 1.16 0.94 0.89 0.90 0.85 0.76 0.69 0.66 0.77 0.84 0.84 0.82 0.75 0.62 0.54 0.54 0.62 0.69 0.64 0.55 0.56 0.64 0.70 0.77 0.89 1.05 1.16 1.13 1.06 0.88 0.87 0.87 0.83 0.86 0.80 0.84 0.75 0.74 0.85 0.92 0.93 0.95 0.86 0.73
1.40 1.22 1.17 1.14 1.10 1.09 1.08 0.88 0.89 1.04 0.80 0.73 0.78 0.86 0.82 0.75 0.73 0.79 0.67 0.59 0.53 0.56 0.69 0.69 0.60 0.58 0.61 0.58 0.59 0.58 0.72 0.87 1.02 1.01 0.90 0.91 0.92 0.88 0.93 0.88 0.88 0.85 0.78 0.83 1.01 0.96 1.00 0.97 0.90
1.27 1.39 1.30 1.18 1.11 1.10 1.09 1.17 1.09 1.03 0.85 0.80 0.81 0.79 0.77 0.71 0.68 0.76 0.71 0.60 0.54 0.53 0.59 0.65 0.64 0.66 0.69 0.67 0.66 0.55 0.59 0.67 0.81 0.93 0.91 0.96 0.91 0.83 0.87 0.88 0.86 0.85 0.87 0.88 0.94 0.98 1.04 0.94 0.88
1.54 1.66 1.70 1.40 1.23 1.07 1.14 1.48 1.34 1.12 0.93 0.93 0.87 0.76 0.74 0.68 0.63 0.68 0.66 0.64 0.60 0.60 0.64 0.69 0.71 0.75 0.77 0.79 0.80 0.74 0.78 0.82 0.84 0.97 0.95 0.90 0.92 0.89 0.89 0.94 0.95 1.00 1.04 1.02 1.04 1.09 1.10 1.05 1.02
1.69 1.67 1.51 1.38 1.14 0.98 1.03 1.27 1.30 1.19 0.97 0.84 0.78 0.67 0.58 0.50 0.47 0.47 0.49 0.51 0.55 0.55 0.58 0.62 0.72 0.75 0.77 0.81 0.89 1.02 1.05 1.05 1.02 1.06 1.02 0.92 0.90 0.95 1.06 1.10 1.15 1.14 1.16 1.19 1.15 1.18 1.10 1.11 1.13
1.66 1.35 1.14 1.08 1.03 0.91 0.84 0.95 1.02 1.06 0.93 0.73 0.60 0.52 0.46 0.37 0.35 0.33 0.33 0.35 0.41 0.45 0.48 0.53 0.62 0.79 0.92 0.95 0.96 1.10 1.15 1.22 1.31 1.36 1.24 1.11 1.13 1.25 1.40 1.49 1.43 1.43 1.44 1.44 1.39 1.47 1.35 1.19 1.20
1.23 1.16 1.03 0.87 0.86 0.88 0.78 0.78 0.84 0.84 0.81 0.67 0.52 0.41 0.37 0.30 0.23 0.21 0.21 0.24 0.27 0.30 0.37 0.44 0.50 0.67 0.80 0.86 0.96 1.13 1.31 1.48 1.63 1.74 1.64 1.50 1.46 1.63 1.75 1.69 1.78 1.81 1.69 1.69 1.74 1.80 1.74 1.50 1.36
1.06 1.05 0.92 0.78 0.69 0.68 0.68 0.71 0.75 0.72 0.70 0.57 0.44 0.35 0.28 0.20 0.17 0.14 0.12 0.13 0.16 0.20 0.24 0.30 0.37 0.48 0.60 0.76 0.98 1.18 1.47 1.56 1.65 1.78 1.82 1.76 1.70 1.85 1.89 1.98 2.07 2.11 2.10 2.05 1.95 2.03 2.13 1.87 1.66
0.86 0.89 0.81 0.72 0.63 0.60 0.58 0.71 0.71 0.66 0.62 0.53 0.40 0.31 0.23 0.16 0.13 0.10 0.09 0.09 0.13 0.14 0.16 0.23 0.35 0.48 0.69 0.92 1.24 1.52 1.75 1.82 1.87 1.83 1.89 1.98 2.02 2.08 2.12 2.17 2.25 2.26 2.12 2.12 2.21 2.31 2.65 2.46 2.11
0.81 0.61 0.55 0.51 0.58 0.61 0.56 0.79 0.60 0.52 0.52 0.45 0.38 0.34 0.26 0.18 0.13 0.11 0.11 0.10 0.11 0.14 0.19 0.30 0.48 0.67 0.93 1.26 1.61 1.85 2.07 2.17 2.02 1.99 2.02 2.03 1.99 2.02 2.14 2.15 2.15 2.13 2.08 2.16 2.22 2.26 2.64 2.83 2.53
0.54 0.46 0.53 0.54 0.51 0.45 0.36 0.49 0.47 0.42 0.48 0.38 0.30 0.31 0.30 0.25 0.18 0.16 0.18 0.18 0.22 0.28 0.35 0.51 0.75 1.05 1.32 1.56 1.74 1.95 2.07 2.09 2.07 2.03 2.02 1.95 1.92 1.89 1.92 1.94 2.03 2.07 2.11 2.17 2.34 2.46 2.69 2.72 2.71
0.39 0.46 0.58 0.59 0.58 0.57 0.32 0.37 0.46 0.40 0.39 0.34 0.29 0.26 0.24 0.23 0.23 0.24 0.27 0.33 0.40 0.44 0.58 0.76 0.93 1.22 1.40 1.52 1.63 1.81 1.96 2.01 2.02 2.00 2.00 2.00 1.97 1.87 1.81 1.77 1.84 1.96 2.13 2.19 2.29 2.43 2.66 2.78 2.86
0.39 0.60 0.83 0.87 0.83 0.62 0.31 0.43 0.51 0.42 0.33 0.29 0.30 0.28 0.25 0.28 0.32 0.33 0.42 0.56 0.64 0.68 0.76 0.90 0.99 1.16 1.27 1.32 1.39 1.54 1.61 1.68 1.73 1.72 1.69 1.63 1.59 1.58 1.61 1.69 1.77 1.91 2.03 2.11 2.23 2.37 2.43 2.54 2.77
0.34 0.51 0.83 0.90 0.78 0.57 0.42 0.63 0.61 0.42 0.34 0.31 0.31 0.29 0.31 0.41 0.49 0.59 0.71 0.81 0.88 0.88 0.85 0.87 1.00 1.05 1.03 1.05 1.06 1.18 1.27 1.33 1.40 1.41 1.40 1.43 1.47 1.48 1.42 1.47 1.57 1.79 1.99 2.07 2.17 2.18 2.16 2.21 2.39
0.33 0.35 0.41 0.58 0.53 0.55 0.54 0.76 0.73 0.44 0.37 0.33 0.32 0.33 0.40 0.55 0.74 0.95 1.12 1.23 1.30 1.21 1.02 0.88 0.89 0.88 0.86 0.91 0.95 1.00 1.09 1.13 1.16 1.20 1.16 1.26 1.30 1.29 1.23 1.26 1.29 1.42 1.65 1.91 2.07 2.01 1.93 1.89 2.05
0.27 0.36 0.45 0.69 0.84 0.79 0.73 0.89 0.89 0.63 0.51 0.43 0.44 0.54 0.69 0.89 1.17 1.42 1.64 1.76 1.73 1.54 1.28 1.00 0.84 0.80 0.78 0.81 0.85 0.90 0.95 0.96 0.95 1.00 0.94 1.00 1.10 1.10 1.09 1.09 1.14 1.27 1.38 1.60 1.83 1.93 1.86 1.83 1.89
0.29 0.41 0.51 0.67 0.76 0.97 1.11 1.16 0.95 0.84 0.75 0.71 0.77 0.94 1.15 1.41 1.59 1.74 1.89 1.93 1.67 1.49 1.25 0.99 0.83 0.86 0.88 0.88 0.88 0.87 0.83 0.82 0.82 0.81 0.78 0.82 0.89 0.89 0.92 1.09 1.14 1.20 1.28 1.47 1.73 1.90 1.91 1.83 1.83
0.42 0.59 0.76 1.05 0.99 0.95 1.17 1.26 0.92 0.84 0.88 0.91 1.02 1.08 1.20 1.34 1.34 1.42 1.49 1.44 1.39 1.35 1.17 1.02 0.93 0.94 0.99 0.99 0.99 0.92 0.82 0.77 0.76 0.73 0.66 0.67 0.65 0.64 0.76 0.90 0.95 0.99 1.04 1.21 1.50 1.70 1.74 1.71 1.62